Regional Weather Roundup
Issued by NWS Columbia, SC

Home | Current Version | Previous Version | Text Only | Print | Product List | Glossary On
Versions: 1 2 3 4 5 6 7 8 9 10 11 12 13 14 15 16 17 18 19 20 21 22 23 24 25 26 27 28 29 30 31 32 33 34 35 36 37 38 39 40 41 42 43 44 45 46 47 48 49 50
000
ASUS42 KCAE 300010
RWRCAE
REGIONAL WEATHER ROUNDUP
NATIONAL WEATHER SERVICE COLUMBIA SC
800 PM EDT FRI AUG 29 2014

NOTE: "FAIR" INDICATES FEW OR NO CLOUDS BELOW 12,000 FEET WITH NO
SIGNIFICANT WEATHER AND/OR OBSTRUCTIONS TO VISIBILITY.

NOT ALL STATIONS ARE QUALITY CONTROLLED BY THE NATIONAL
WEATHER SERVICE. USE DATA WITH CAUTION...ESPECIALLY
DEWPOINT OBSERVATIONS.

SCZ001>056-GAZ040-063>065-077-300100-
...UPSTATE SOUTH CAROLINA...

CITY           SKY/WX    TMP DP  RH WIND       PRES   REMARKS
ANDERSON       PTCLDY    85  66  53 E9        30.06R
6HR MIN TEMP:  85; 6HR MAX TEMP:  95;

LIBERTY        FAIR      85  84  97 NE5       30.07S HX 105
6HR MIN TEMP:  62; 6HR MAX TEMP:  92;

SPARTANBURG    FAIR      86  72  62 E6        30.08R
CLEMSON        CLEAR     87  64  46 E3        30.07S
6HR MIN TEMP:  87; 6HR MAX TEMP:  96;

GREENVILLE     CLEAR     86  65  49 E6        30.09S
6HR MIN TEMP:  86; 6HR MAX TEMP:  92;

GREENWOOD      CLEAR     88  59  37 SE6       30.06S
6HR MIN TEMP:  88; 6HR MAX TEMP:  97;

GREER          CLEAR     82  69  64 NE6       30.07S
6HR MIN TEMP:  82; 6HR MAX TEMP:  91;

ROCK HILL      CLEAR     82  71  69 CALM      30.09S
6HR MIN TEMP:  81; 6HR MAX TEMP:  90;

LAURENS        FAIR      84  55  37 NE3       30.07R


...CENTRAL SOUTH CAROLINA...

CITY           SKY/WX    TMP DP  RH WIND       PRES   REMARKS
COLUMBIA APT   PTCLDY    87  56  34 E7        30.05R
6HR MIN TEMP:  87; 6HR MAX TEMP:  96;

COLUMBIA OWENS CLEAR     87  58  37 CALM      30.06S
6HR MIN TEMP:  87; 6HR MAX TEMP:  96;

DARLINGTON     CLEAR     84  64  51 SE6       30.08R
6HR MIN TEMP:  84; 6HR MAX TEMP:  97;

FLORENCE       CLEAR     85  66  53 S3        30.08R
6HR MIN TEMP:  85; 6HR MAX TEMP:  94;

MCENTIRE ANGB  CLEAR     83  61  47 CALM      30.07R
6HR MIN TEMP:  83; 6HR MAX TEMP:  95;

ORANGEBURG     CLOUDY    82  69  64 SE14G21   30.07R
6HR MIN TEMP:  82; 6HR MAX TEMP:  94;

SUMTER SHAW    CLEAR     87  63  45 SE3       30.06R
6HR MIN TEMP:  87; 6HR MAX TEMP:  95;

NEWBERRY       FAIR      88  55  33 E3        30.08S
AIKEN          FAIR      86  63  45 SE5       30.09R
BARNWELL       MOCLDY    90  66  45 SE6       30.05S
MANNING        FAIR      84  66  54 S5        30.08R
CAMDEN         FAIR      82  64  54 CALM      30.08R
LANCASTER      FAIR      82  73  74 E5        30.08S
WINNSBORO      FAIR      86  64  48 E5        30.07R


...EASTERN AND COASTAL SOUTH CAROLINA...

CITY           SKY/WX    TMP DP  RH WIND       PRES   REMARKS
MYRTLE BEACH   CLEAR     82  73  74 SE12      30.10R
N MYRTLE BCH   CLEAR     82  74  76 SE7       30.10R
6HR MIN TEMP:  81; 6HR MAX TEMP:  86;

CONWAY         FAIR      79  73  83 SE3       30.10R
MARION         FAIR      82  68  61 SE6       30.09R
HARTSVILLE     FAIR      86  36  16 SE3       30.09R
FLORENCE       CLEAR     85  66  53 S3        30.08R
6HR MIN TEMP:  85; 6HR MAX TEMP:  94;

DARLINGTON     CLEAR     84  64  51 SE6       30.08R
6HR MIN TEMP:  84; 6HR MAX TEMP:  97;

CHARLESTON APT PTCLDY    83  73  72 SE8       30.09R
6HR MIN TEMP:  83; 6HR MAX TEMP:  92;

MOUNT PLEASANT FAIR      81  77  89 E3        30.09R
WALTERBORO     PTCLDY    82  61  47 SE5       30.08S
BEAUFORT       CLEAR     82  71  69 S5        30.07S
6HR MIN TEMP:  82; 6HR MAX TEMP:  92;



...EASTERN GEORGIA...

CITY           SKY/WX    TMP DP  RH WIND       PRES   REMARKS
AUGUSTA BUSH F CLEAR     80  66  62 CALM      30.02S
6HR MIN TEMP:  80; 6HR MAX TEMP:  96;

AUGUSTA DANIEL CLEAR     90  60  36 SE6       30.04S
6HR MIN TEMP:  90; 6HR MAX TEMP:  96;

THOMSON        CLEAR     86  66  50 CALM      30.08R
6HR MIN TEMP:  86; 6HR MAX TEMP:  98;

WASHINGTON     FAIR      88  61  40 SE3       30.04R
SYLVANIA       CLEAR     83  69  62 SE5       30.06R
6HR MIN TEMP:  83; 6HR MAX TEMP:  91;

STATESBORO     CLEAR     84  71  63 SE7       30.05R
6HR MIN TEMP:  84; 6HR MAX TEMP:  94;

SAVANNAH       PTCLDY    84  70  62 S9        30.07R
6HR MIN TEMP:  84; 6HR MAX TEMP:  94;



...SOUTHERN NORTH CAROLINA...

CITY           SKY/WX    TMP DP  RH WIND       PRES   REMARKS
CHARLOTTE      PTCLDY    83  68  60 E8        30.10S
6HR MIN TEMP:  83; 6HR MAX TEMP:  88;

MONROE         PTCLDY    81  71  71 NE7       30.09S
6HR MIN TEMP:  81; 6HR MAX TEMP:  89;

WADESBORO      CLOUDY    81  71  72 NE3       30.09R
6HR MIN TEMP:  81; 6HR MAX TEMP:  89;

ROCKINGHAM     PTCLDY    82  73  73 NE5       30.09R
6HR MIN TEMP:  82; 6HR MAX TEMP:  93;

RUTHERFORDTON  CLEAR     81  69  66 S6        30.12R
6HR MIN TEMP:  81; 6HR MAX TEMP:  88; 6HR PCP:  0.03;

ASHEVILLE      CLEAR     79  65  62 CALM      30.16S
6HR MIN TEMP:  79; 6HR MAX TEMP:  87;


$$


USA.gov is the U.S. government's official web portal to all federal, state and local government web resources and services.